Location: Drummondville
(45.8830°N, 72.4830°W)
Time: 06:30:45
(UTC-04:00)

Vanguard 1 - Visible Passes

Search period start: 23 June 2018 00:00
Search period end: 03 July 2018 00:00
Orbit: 650 x 3833 km, 34.3° (Epoch: 22 June)

Date Brightness Start Highest point End Pass type
(mag) Time Alt. Az. Time Alt. Az. Time Alt. Az.
23 Jun 12.8 04:10:42 10° SE 04:13:25 11° SE 04:16:31 10° ESE visible
28 Jun 12.3 03:33:06 10° SSE 03:36:01 12° SE 03:39:28 10° ESE visible
29 Jun 12.0 03:51:45 10° S 03:56:11 18° SE 04:02:13 10° ESE visible
30 Jun 11.9 04:11:18 10° SSW 04:16:28 23° SE 04:24:08 10° E visible
